Date String (YYYY-MM-DD hh:mm:ss) UTC,Instrument flags,Ambient pressure (hPa),Sample flow (lpm),Bypass flow (lpm),Sample temperature (°C),Ambient temperature (°C),ASC tube jacket temperature (°C),LED temperature (°C),Box temperature (°C),Sample RH (%),Span deviation,Mass concentration (μg/m³),Mass concentration (μg/m³),Mass concentration (μg/m³)
DateTimeUTC,F1_M11,P_M11,Q1_M11,Q2_M11,T1_M11,T2_M11,T3_M11,T4_M11,T5_M11,U1_M11,ZSPAN_M11,X0_M11,X2_M11,X1_M11
2023-01-27 17:00:00,,0819.7,5.01,0.00,22.0,20.5,00.0,30.9,23.7,10.0,0000.0,0001.64,0000.41,0000.23
2023-01-27 17:01:00,,0819.9,4.99,0.00,22.0,20.4,00.0,30.9,23.6,09.9,0000.0,0000.87,0000.38,0000.23
2023-01-27 17:02:00,,0820.0,5.00,0.00,22.0,20.4,00.0,30.9,23.6,09.9,0000.0,0002.07,0000.36,0000.23
2023-01-27 17:03:00,,0819.9,5.01,0.00,21.9,20.5,00.0,30.9,23.5,10.3,0000.0,0002.05,0000.35,0000.22
2023-01-27 17:04:00,,0819.7,5.00,0.00,22.0,21.5,00.0,30.8,23.9,10.3,0000.0,0002.02,0000.34,0000.22
2023-01-27 17:05:00,,0819.8,5.00,0.00,22.1,22.7,00.0,30.8,24.2,10.0,0000.0,0002.03,0000.35,0000.23
2023-01-27 17:06:00,,0819.9,4.99,0.00,22.3,23.2,00.0,30.9,24.4,09.8,0000.0,0002.03,0000.35,0000.23
2023-01-27 17:07:00,,0819.9,4.99,0.00,22.3,22.6,00.0,30.9,24.3,09.7,0000.0,0001.99,0000.35,0000.23
2023-01-27 17:08:00,,0819.8,5.01,0.00,22.3,22.0,00.0,31.0,24.2,09.8,0000.0,0001.90,0000.31,0000.23
2023-01-27 17:09:00,,0819.9,5.01,0.00,22.3,21.7,00.0,31.0,24.1,09.6,0000.0,0001.89,0000.31,0000.22
2023-01-27 17:10:00,,0819.9,4.99,0.00,22.3,21.5,00.0,31.0,24.1,10.0,0000.0,0001.87,0000.30,0000.23
2023-01-27 17:11:00,,0819.8,5.00,0.00,22.3,21.3,00.0,31.1,24.0,10.0,0000.0,0001.87,0000.30,0000.23
2023-01-27 17:12:00,,0819.8,5.00,0.00,22.3,21.1,00.0,31.1,24.0,09.8,0000.0,0001.89,0000.32,0000.23
2023-01-27 17:13:00,,0819.7,4.97,0.00,22.3,21.0,00.0,31.1,23.9,10.0,0000.0,0001.85,0000.32,0000.23
2023-01-27 17:14:00,,0819.7,4.98,0.00,22.2,20.9,00.0,31.1,23.9,10.0,0000.0,0001.60,0000.32,0000.23
2023-01-27 17:15:00,,0819.8,5.00,0.00,22.2,20.9,00.0,31.1,23.9,10.3,0000.0,0001.58,0000.31,0000.23
2023-01-27 17:16:00,,0819.7,5.00,0.00,22.2,20.8,00.0,31.1,23.9,10.0,0000.0,0001.58,0000.31,0000.23
2023-01-27 17:17:00,,0819.7,5.00,0.00,22.2,20.7,00.0,31.1,23.8,10.1,0000.0,0001.58,0000.31,0000.23
2023-01-27 17:18:00,,0819.7,5.01,0.00,22.1,20.7,00.0,31.1,23.8,10.0,0000.0,0001.47,0000.29,0000.23
2023-01-27 17:19:00,,0819.7,5.01,0.00,22.1,20.6,00.0,31.0,23.8,10.0,0000.0,0001.41,0000.28,0000.23
2023-01-27 17:20:00,,0819.7,4.99,0.00,22.1,20.6,00.0,31.0,23.7,10.3,0000.0,0001.39,0000.28,0000.23
2023-01-27 17:21:00,,0819.7,5.02,0.00,22.1,20.6,00.0,31.0,23.7,10.2,0000.0,0001.42,0000.30,0000.23
2023-01-27 17:22:00,,0819.7,4.99,0.00,22.0,20.5,00.0,31.0,23.7,10.2,0000.0,0001.43,0000.31,0000.23
2023-01-27 17:23:00,,0819.6,5.00,0.00,22.0,20.5,00.0,31.0,23.7,10.6,0000.0,0001.43,0000.30,0000.24
2023-01-27 17:24:00,,0819.6,5.00,0.00,22.0,20.5,00.0,31.0,23.6,10.3,0000.0,0000.72,0000.30,0000.24
2023-01-27 17:25:00,,0819.7,4.99,0.00,22.0,20.5,00.0,31.0,23.6,10.8,0000.0,0000.41,0000.30,0000.24
2023-01-27 17:26:00,,0819.7,5.00,0.00,22.0,20.4,00.0,31.0,23.6,10.8,0000.0,0000.40,0000.30,0000.24
2023-01-27 17:27:00,,0819.7,5.00,0.00,21.9,20.4,00.0,30.9,23.5,10.3,0000.0,0000.40,0000.30,0000.24
2023-01-27 17:28:00,,0819.7,5.03,0.00,22.0,21.6,00.0,30.9,23.8,10.4,0000.0,0000.40,0000.30,0000.24
2023-01-27 17:29:00,,0819.7,5.00,0.00,22.1,22.7,00.0,30.9,24.1,10.6,0000.0,0000.39,0000.30,0000.24
2023-01-27 17:30:00,,0819.6,5.00,0.00,22.2,22.4,00.0,30.9,24.2,10.5,0000.0,0000.39,0000.30,0000.24
2023-01-27 17:31:00,,0819.7,5.01,0.00,22.2,21.9,00.0,31.0,24.0,10.6,0000.0,0000.45,0000.28,0000.24
2023-01-27 17:32:00,,0819.6,5.01,0.00,22.2,21.5,00.0,31.0,24.0,10.6,0000.0,0000.51,0000.28,0000.23
2023-01-27 17:33:00,,0819.5,5.00,0.00,22.2,21.4,00.0,31.0,24.0,10.6,0000.0,0000.50,0000.27,0000.22
2023-01-27 17:34:00,,0819.5,5.02,0.00,22.2,21.3,00.0,31.0,24.0,10.2,0000.0,0000.54,0000.28,0000.22
2023-01-27 17:35:00,,0819.4,5.00,0.00,22.2,21.2,00.0,31.0,24.0,10.4,0000.0,0000.56,0000.29,0000.22
2023-01-27 17:36:00,,0819.4,5.00,0.00,22.2,21.2,00.0,31.0,24.0,10.3,0000.0,0000.56,0000.29,0000.22
2023-01-27 17:37:00,,0819.3,5.00,0.00,22.2,21.1,00.0,31.0,24.0,10.1,0000.0,0000.58,0000.30,0000.22
2023-01-27 17:38:00,,0819.3,5.01,0.00,22.2,21.1,00.0,31.1,24.1,10.0,0000.0,0000.59,0000.30,0000.23
2023-01-27 17:39:00,,0819.2,5.03,0.00,22.3,21.1,00.0,31.1,24.1,10.0,0000.0,0000.60,0000.30,0000.22
2023-01-27 17:40:00,,0819.2,5.01,0.00,22.3,21.1,00.0,31.1,24.1,09.9,0000.0,0000.62,0000.32,0000.23
2023-01-27 17:41:00,,0819.3,4.98,0.00,22.3,21.1,00.0,31.1,24.1,09.9,0000.0,0000.68,0000.33,0000.23
2023-01-27 17:42:00,,0819.2,5.01,0.00,22.3,21.1,00.0,31.1,24.1,10.1,0000.0,0000.61,0000.34,0000.23
2023-01-27 17:43:00,,0819.2,5.00,0.00,22.3,21.0,00.0,31.1,24.1,10.1,0000.0,0000.54,0000.33,0000.23
2023-01-27 17:44:00,,0819.2,5.01,0.00,22.3,21.0,00.0,31.1,24.1,10.4,0000.0,0000.55,0000.34,0000.24
2023-01-27 17:45:00,,0819.1,5.01,0.00,22.3,21.0,00.0,31.1,24.1,11.7,0000.0,0001.19,0000.42,0000.28
2023-01-27 17:46:00,,0819.1,5.00,0.00,22.3,21.1,00.0,31.1,24.1,10.9,0000.0,0002.23,0000.53,0000.33
2023-01-27 17:47:00,,0819.2,4.98,0.00,22.3,21.1,00.0,31.1,24.1,10.6,0000.0,0002.54,0000.62,0000.37
2023-01-27 17:48:00,,0819.1,5.01,0.00,22.3,21.2,00.0,31.1,24.1,11.6,0000.0,0002.74,0000.67,0000.41
2023-01-27 17:49:00,,0819.1,5.00,0.00,22.4,21.2,00.0,31.1,24.1,11.1,0000.0,0002.98,0000.78,0000.49
2023-01-27 17:50:00,,0819.2,5.01,0.00,22.4,21.2,00.0,31.1,24.1,10.3,0000.0,0003.23,0000.86,0000.55
2023-01-27 17:51:00,,0819.2,5.00,0.00,22.4,21.1,00.0,31.1,24.2,10.2,0000.0,0003.29,0000.89,0000.57
2023-01-27 17:52:00,,0819.1,5.00,0.00,22.4,21.1,00.0,31.1,24.2,10.8,0000.0,0003.48,0000.96,0000.63
2023-01-27 17:53:00,,0819.2,4.99,0.00,22.4,21.2,00.0,31.2,24.2,10.7,0000.0,0003.64,0001.03,0000.68
2023-01-27 17:54:00,,0819.1,5.00,0.00,22.4,21.2,00.0,31.2,24.2,10.9,0000.0,0003.75,0001.09,0000.73
2023-01-27 17:55:00,,0819.1,5.02,0.00,22.4,21.2,00.0,31.2,24.2,11.0,0000.0,0004.01,0001.18,0000.78
2023-01-27 17:56:00,,0819.0,5.00,0.00,22.4,21.2,00.0,31.2,24.2,10.8,0000.0,0004.45,0001.20,0000.81
2023-01-27 17:57:00,,0819.0,5.00,0.00,22.4,21.2,00.0,31.2,24.2,11.1,0000.0,0003.59,0001.10,0000.79
2023-01-27 17:58:00,,0818.9,5.00,0.00,22.4,21.2,00.0,31.2,24.1,11.6,0000.0,0003.24,0001.06,0000.80
2023-01-27 17:59:00,,0818.8,4.99,0.00,22.4,21.2,00.0,31.2,24.1,11.7,0000.0,0003.23,0001.10,0000.82
